This demonstration page uses our WeatherBlox Daily Observations layout. Learn more.

Left ArrowRight Arrow

38.89511, -77.03637

Hourly Observations for December 1, 2022

Temp ( °F °C ) Dew Point ( °F °C ) Humidity (%) Winds ( mph kmh ) Pressure ( in mb ) Visibility ( mi km ) Precip ( " mm )
12:52 am 00:52 Clear 41 5 19 -7.2 41 41 NW 8 13 30.09 1019 10 16 0.00 0.00
1:52 am 01:52 Clear 42 5.6 18 -7.8 37 37 WNW 13 20 30.13 1020 10 16 0.00 0.00
2:52 am 02:52 Mostly Clear 40 4.4 18 -7.8 41 41 WNW 12 19 30.18 1022 10 16 0.00 0.00
3:52 am 03:52 Mostly Clear 40 4.4 18 -7.8 41 41 WNW 18 30 30.19 1023 10 16 0.00 0.00
4:52 am 04:52 Clear 39 3.9 17 -8.3 40 40 WNW 22 35 30.23 1024 10 16 0.00 0.00
5:52 am 05:52 Mostly Clear 37 2.8 17 -8.3 44 44 WNW 8 13 30.29 1026 10 16 0.00 0.00
6:52 am 06:52 Mostly Clear 37 2.8 17 -8.3 44 44 WNW 10 17 30.33 1027 10 16 0.00 0.00
7:52 am 07:52 Mostly Sunny 37 2.8 17 -8.3 44 44 W 12 19 30.37 1028 10 16 0.00 0.00
8:52 am 08:52 Mostly Sunny 39 3.9 18 -7.8 42 42 W 9 15 30.41 1030 10 16 0.00 0.00
9:52 am 09:52 Mostly Sunny 41 5 18 -7.8 39 39 WNW 14 22 30.42 1030 10 16 0.00 0.00
10:52 am 10:52 Mostly Sunny 41 5 18 -7.8 39 39 WNW 12 19 30.43 1031 10 16 0.00 0.00
11:52 am 11:52 Mostly Sunny 44 6.7 19 -7.2 36 36 NW 12 19 30.45 1031 10 16 0.00 0.00
12:52 pm 12:52 Mostly Sunny 45 7.2 18 -7.8 33 33 NW 17 28 30.45 1031 10 16 0.00 0.00
1:52 pm 13:52 Mostly Sunny 46 7.8 18 -7.8 32 32 NW 12 19 30.45 1031 10 16 0.00 0.00
2:52 pm 14:52 Mostly Sunny 46 7.8 17 -8.3 31 31 VRB 6 9 30.45 1031 10 16 0.00 0.00
3:10 pm 15:10 Sunny 46 7.8 18 -7.8 32 32 NW 12 19 30.46 1032 10 16 0.00 0.00
3:52 pm 15:52 Partly Cloudy 46 7.8 16 -8.9 29 29 NW 6 9 30.47 1032 10 16 0.00 0.00
4:52 pm 16:52 Partly Cloudy 43 6.1 17 -8.3 35 35 NNW 9 15 30.47 1032 10 16 0.00 0.00
5:52 pm 17:52 Partly Cloudy 43 6.1 18 -7.8 36 36 N 10 17 30.47 1032 10 16 0.00 0.00
6:52 pm 18:52 Mostly Cloudy 42 5.6 17 -8.3 36 36 NNW 7 11 30.48 1032 10 16 0.00 0.00
8:52 pm 20:52 Mostly Cloudy 40 4.4 18 -7.8 41 41 NNW 5 7 30.51 1033 10 16 0.00 0.00
9:52 pm 21:52 Mostly Cloudy 39 3.9 22 -5.6 50 50 ENE 5 7 30.52 1034 10 16 0.00 0.00
10:52 pm 22:52 Mostly Cloudy 38 3.3 22 -5.6 52 52 ENE 7 11 30.52 1034 10 16 0.00 0.00
11:52 pm 23:52 Mostly Cloudy 37 2.8 22 -5.6 54 54 ENE 6 9 30.54 1034 10 16 0.00 0.00

Powered by AerisWeather